Time,TemperatureF,DewpointF,PressureIn,WindDirection,WindDirectionDegrees,WindSpeedMPH,WindSpeedGustMPH,Humidity,HourlyPrecipIn,Conditions,Clouds,dailyrainin,SolarRadiationWatts/m^2,SoftwareType,DateUTC
2013-06-10 00:06:00,77.6,75.0,30.14,East,86,5.0,-999.0,90,-99.99,,,0.00,0,weatherlink.com 1.10,2013-06-10 04:06:00,
2013-06-10 00:36:00,77.8,75.0,30.14,ESE,102,8.0,-999.0,91,-99.99,,,0.00,0,weatherlink.com 1.10,2013-06-10 04:36:00,
2013-06-10 01:06:00,78.7,75.0,30.14,ESE,120,8.0,-999.0,89,-99.99,,,0.00,0,weatherlink.com 1.10,2013-06-10 05:06:00,
2013-06-10 01:21:00,78.5,75.0,30.14,ESE,113,7.0,-999.0,89,-99.99,,,0.00,0,weatherlink.com 1.10,2013-06-10 05:21:00,
2013-06-10 01:36:00,78.6,76.0,30.13,ESE,113,8.0,-999.0,90,-99.99,,,0.00,0,weatherlink.com 1.10,2013-06-10 05:36:00,
2013-06-10 01:51:00,78.4,75.0,30.13,ESE,114,7.0,-999.0,89,-99.99,,,0.00,0,weatherlink.com 1.10,2013-06-10 05:51:00,
2013-06-10 02:06:00,78.1,75.0,30.13,ESE,109,5.0,-999.0,90,-99.99,,,0.00,0,weatherlink.com 1.10,2013-06-10 06:06:00,
2013-06-10 02:36:00,77.7,75.0,30.12,ESE,109,6.0,-999.0,91,-99.99,,,0.00,0,weatherlink.com 1.10,2013-06-10 06:36:00,
2013-06-10 03:21:00,77.3,75.0,30.11,ESE,109,4.0,-999.0,93,-99.99,,,0.00,0,weatherlink.com 1.10,2013-06-10 07:21:00,
2013-06-10 03:36:00,77.3,75.0,30.10,ESE,109,5.0,-999.0,92,-99.99,,,0.00,0,weatherlink.com 1.10,2013-06-10 07:36:00,
2013-06-10 04:21:00,77.0,75.0,30.09,East,96,6.0,-999.0,92,-99.99,,,0.00,0,weatherlink.com 1.10,2013-06-10 08:21:00,
2013-06-10 04:36:00,77.1,75.0,30.10,East,96,6.0,-999.0,92,-99.99,,,0.00,0,weatherlink.com 1.10,2013-06-10 08:36:00,
2013-06-10 05:06:00,77.6,75.0,30.10,East,98,7.0,-999.0,92,-99.99,,,0.00,0,weatherlink.com 1.10,2013-06-10 09:06:00,
2013-06-10 05:36:00,77.1,75.0,30.11,East,99,4.0,-999.0,92,-99.99,,,0.00,0,weatherlink.com 1.10,2013-06-10 09:36:00,
2013-06-10 06:06:00,76.9,75.0,30.12,East,99,5.0,-999.0,93,-99.99,,,0.00,0,weatherlink.com 1.10,2013-06-10 10:06:00,
2013-06-10 06:21:00,77.2,75.0,30.12,East,99,4.0,-999.0,93,-99.99,,,0.00,0,weatherlink.com 1.10,2013-06-10 10:21:00,
2013-06-10 06:36:00,77.2,75.0,30.12,East,99,5.0,-999.0,93,-99.99,,,0.00,11,weatherlink.com 1.10,2013-06-10 10:36:00,
2013-06-10 06:51:00,77.2,75.0,30.12,East,99,6.0,-999.0,93,-99.99,,,0.00,19,weatherlink.com 1.10,2013-06-10 10:51:00,
2013-06-10 07:06:00,77.4,75.0,30.13,East,99,4.0,-999.0,93,-99.99,,,0.00,37,weatherlink.com 1.10,2013-06-10 11:06:00,
2013-06-10 07:21:00,77.6,76.0,30.13,East,99,5.0,-999.0,94,-99.99,,,0.00,35,weatherlink.com 1.10,2013-06-10 11:21:00,
2013-06-10 07:36:00,77.7,76.0,30.12,East,99,0.0,-999.0,93,-99.99,,,0.00,62,weatherlink.com 1.10,2013-06-10 11:36:00,